Westfield, MA

3:56 PM EDT on August 20, 2017 (GMT -0400)
Barnes Municipal

Weather History for KBAF - January, 2013

Change the Weather History Date:

Saturday, January 26, 2013

  Actual Average Record
Temperature  
Mean Temperature 14 °F -  
Max Temperature 24 °F 29 °F 50 °F (2002)
Min Temperature 5 °F 11 °F -2 °F (2009)
Degree Days  
Heating Degree Days 50    
Moisture  
Dew Point 1 °F    
Average Humidity 56    
Maximum Humidity 80    
Minimum Humidity 34    
Precipitation  
Precipitation 0.00 in - - ()
Sea Level Pressure  
Sea Level Pressure 30.15 in    
Wind  
Wind Speed 5 mph (NNW)    
Max Wind Speed 18 mph    
Max Gust Speed 25 mph    
Visibility 10 miles    
Events      
Averages and records for this station are not official NWS values.
T = Trace of Precipitation, MM = Missing Value Source: NWS Daily Summary

Daily Weather History Graph

Daily Weather History Graph

Search for Another Location

Airport or City:

Trip Planner

Search our weather history database for the weather conditions in past years. The results will help you decide how hot, cold, wet, or windy it might be!

Date:

Astronomy

Jan. 26, 2013 Rise Set
Actual Time 7:09 AM EST 4:58 PM EST
Civil Twilight 6:39 AM EST 5:28 PM EST
Nautical Twilight 6:05 AM EST 6:02 PM EST
Astronomical Twilight 5:32 AM EST 6:35 PM EST
Moon 4:51 PM EST (1/26) 6:25 AM EST (1/26)
Length of Visible Light 10h 48m
Length of Day
9h 48m
Full, 100% of the Moon is Illuminated
Jan 26
Full
Jan 26
Full
Feb 3
Last Quarter
Feb 10
New
Feb 17
First Quarter

Hourly Weather History & Observations

Time (EST) Temp. Windchill Dew Point Humidity Pressure Visibility Wind Dir Wind Speed Gust Speed Precip Events Conditions
12:53 AM 12.0 °F - 7.0 °F 80% 30.08 in 10.0 mi Calm Calm - N/A   Clear
1:53 AM 10.0 °F - 5.0 °F 80% 30.06 in 10.0 mi Calm Calm - N/A   Clear
2:53 AM 9.0 °F 2.4 °F 3.9 °F 80% 30.05 in 10.0 mi North 3.5 mph - N/A   Clear
3:53 AM 7.0 °F 0.1 °F 1.9 °F 80% 30.05 in 10.0 mi NNE 3.5 mph - N/A   Clear
4:53 AM 6.1 °F - -0.0 °F 76% 30.06 in 10.0 mi Calm Calm - N/A   Clear
5:53 AM 6.1 °F - -0.0 °F 76% 30.08 in 10.0 mi Calm Calm - N/A   Clear
6:53 AM 5.0 °F - -0.9 °F 76% 30.09 in 10.0 mi Calm Calm - N/A   Clear
7:53 AM 6.1 °F - -0.0 °F 76% 30.12 in 9.0 mi Calm Calm - N/A   Clear
8:53 AM 12.9 °F - 6.1 °F 74% 30.12 in 10.0 mi Calm Calm - N/A   Clear
9:53 AM 18.0 °F 9.8 °F 5.0 °F 57% 30.13 in 10.0 mi NNE 5.8 mph - N/A   Clear
10:53 AM 19.9 °F 9.3 °F 3.9 °F 50% 30.12 in 10.0 mi North 9.2 mph - N/A   Clear
11:53 AM 23.0 °F 12.4 °F 1.9 °F 40% 30.11 in 10.0 mi North 10.4 mph - N/A   Clear
12:53 PM 24.1 °F 13.7 °F -0.0 °F 35% 30.09 in 10.0 mi NW 10.4 mph 19.6 mph N/A   Clear
1:53 PM 24.1 °F 12.0 °F 1.0 °F 37% 30.09 in 10.0 mi WNW 13.8 mph 21.9 mph N/A   Clear
2:53 PM 24.1 °F 11.5 °F -0.9 °F 34% 30.13 in 10.0 mi NW 15.0 mph 24.2 mph N/A   Clear
3:53 PM 21.9 °F 7.3 °F -2.0 °F 35% 30.16 in 10.0 mi NW 18.4 mph 25.3 mph N/A   Clear
4:53 PM 21.0 °F 7.6 °F -0.0 °F 40% 30.18 in 10.0 mi NW 15.0 mph - N/A   Scattered Clouds
5:53 PM 19.9 °F 4.8 °F -0.0 °F 42% 30.20 in 10.0 mi NNW 18.4 mph 23.0 mph N/A   Overcast
6:53 PM 19.0 °F 6.1 °F -0.0 °F 43% 30.23 in 10.0 mi NW 12.7 mph 17.3 mph N/A   Scattered Clouds
7:53 PM 18.0 °F 8.7 °F -0.0 °F 45% 30.24 in 10.0 mi NW 6.9 mph - N/A   Clear
8:53 PM 17.1 °F 6.6 °F -0.9 °F 45% 30.25 in 10.0 mi NNW 8.1 mph - N/A   Clear
9:53 PM 16.0 °F 6.3 °F -0.9 °F 47% 30.28 in 10.0 mi NNW 6.9 mph - N/A   Clear
10:53 PM 15.1 °F 2.5 °F -0.9 °F 49% 30.30 in 10.0 mi NW 10.4 mph - N/A   Clear
11:53 PM 15.1 °F 1.8 °F -0.9 °F 49% 30.31 in 10.0 mi NW 11.5 mph - N/A   Clear